Track STARLINK-5471 now! 10-day predictions STARLINK-5471 is classified as:
1 54766U 22175J 24325.57331538 .00000833 00000-0 70405-4 0 9990 2 54766 53.2176 12.5048 0001262 93.7320 266.3816 15.08843149106180